Year,Month,Day,Hour,Minute,Value (Times are PST for temperature in C)
2018,02,05,00,00,9.50
2018,02,05,00,01,9.50
2018,02,05,00,02,9.40
2018,02,05,00,03,9.40
2018,02,05,00,04,9.30
2018,02,05,00,05,9.30
2018,02,05,00,06,9.30
2018,02,05,00,07,9.20
2018,02,05,00,08,9.20
2018,02,05,00,09,9.20
2018,02,05,00,10,9.20
2018,02,05,00,11,9.20
2018,02,05,00,12,9.20
2018,02,05,00,13,9.10
2018,02,05,00,14,9.10
2018,02,05,00,15,9.10
2018,02,05,00,16,9.10
2018,02,05,00,17,9.10
2018,02,05,00,18,9.10
2018,02,05,00,19,9.10
2018,02,05,00,20,9.00
2018,02,05,00,21,9.00
2018,02,05,00,22,9.00
2018,02,05,00,23,9.00
2018,02,05,00,24,9.00
2018,02,05,00,25,9.00
2018,02,05,00,26,8.90
2018,02,05,00,27,8.90
2018,02,05,00,28,8.90
2018,02,05,00,29,8.90
2018,02,05,00,30,8.90
2018,02,05,00,31,8.90
2018,02,05,00,32,8.80
2018,02,05,00,33,8.80
2018,02,05,00,34,8.80
2018,02,05,00,35,8.80
2018,02,05,00,36,8.80
2018,02,05,00,37,8.70
2018,02,05,00,38,8.70
2018,02,05,00,39,8.70
2018,02,05,00,40,8.60
2018,02,05,00,41,8.60
2018,02,05,00,42,8.60
2018,02,05,00,43,8.60
2018,02,05,00,44,8.50
2018,02,05,00,45,8.50
2018,02,05,00,46,8.40
2018,02,05,00,47,8.40
2018,02,05,00,48,8.40
2018,02,05,00,49,8.30
2018,02,05,00,50,8.30
2018,02,05,00,51,8.20
2018,02,05,00,52,8.20
2018,02,05,00,53,8.20
2018,02,05,00,54,8.20
2018,02,05,00,55,8.20
2018,02,05,00,56,8.20
2018,02,05,00,57,8.20
2018,02,05,00,58,8.10
2018,02,05,00,59,8.10
2018,02,05,01,00,8.10
2018,02,05,01,01,8.10
2018,02,05,01,02,8.10
2018,02,05,01,03,8.10
2018,02,05,01,04,8.10
2018,02,05,01,05,8.10
2018,02,05,01,06,8.10
2018,02,05,01,07,8.00
2018,02,05,01,08,8.00
2018,02,05,01,09,8.00
2018,02,05,01,10,8.00
2018,02,05,01,11,8.00
2018,02,05,01,12,8.00
2018,02,05,01,13,8.00
2018,02,05,01,14,8.00
2018,02,05,01,15,8.10
2018,02,05,01,16,8.10
2018,02,05,01,17,8.10
2018,02,05,01,18,8.10
2018,02,05,01,19,8.10
2018,02,05,01,20,8.10
2018,02,05,01,21,8.10
2018,02,05,01,22,8.00
2018,02,05,01,23,8.00
2018,02,05,01,24,8.00
2018,02,05,01,25,8.00
2018,02,05,01,26,7.90
2018,02,05,01,27,7.90
2018,02,05,01,28,7.90
2018,02,05,01,29,7.90
2018,02,05,01,30,7.90
2018,02,05,01,31,7.90
2018,02,05,01,32,7.90
2018,02,05,01,33,7.90
2018,02,05,01,34,7.90
2018,02,05,01,35,7.90
2018,02,05,01,36,7.90
2018,02,05,01,37,7.90
2018,02,05,01,38,7.90
2018,02,05,01,39,7.90
2018,02,05,01,40,7.90
2018,02,05,01,41,7.90
2018,02,05,01,42,7.90
2018,02,05,01,43,7.90
2018,02,05,01,44,7.90
2018,02,05,01,45,7.90
2018,02,05,01,46,7.90
2018,02,05,01,47,7.90
2018,02,05,01,48,7.90
2018,02,05,01,49,7.90
2018,02,05,01,50,7.90
2018,02,05,01,51,7.90
2018,02,05,01,52,7.90
2018,02,05,01,53,7.90
2018,02,05,01,54,7.90
2018,02,05,01,55,7.90
2018,02,05,01,56,7.90
2018,02,05,01,57,7.90
2018,02,05,01,58,7.90
2018,02,05,01,59,7.90
2018,02,05,02,00,7.90
2018,02,05,02,01,7.90
2018,02,05,02,02,7.90
2018,02,05,02,03,7.90
2018,02,05,02,04,7.90
2018,02,05,02,05,7.90
2018,02,05,02,06,7.90
2018,02,05,02,07,7.90
2018,02,05,02,08,7.90
2018,02,05,02,09,7.90
2018,02,05,02,10,7.90
2018,02,05,02,11,7.90
2018,02,05,02,12,7.90
2018,02,05,02,13,7.90
2018,02,05,02,14,7.90
2018,02,05,02,15,7.90
2018,02,05,02,16,7.90
2018,02,05,02,17,7.90
2018,02,05,02,18,7.90
2018,02,05,02,19,7.90
2018,02,05,02,20,7.90
2018,02,05,02,21,7.90
2018,02,05,02,22,7.90
2018,02,05,02,23,8.00
2018,02,05,02,24,8.00
2018,02,05,02,25,8.00
2018,02,05,02,26,8.00
2018,02,05,02,27,8.00
2018,02,05,02,28,8.00
2018,02,05,02,29,8.10
2018,02,05,02,30,8.10
2018,02,05,02,31,8.10
2018,02,05,02,32,8.10
2018,02,05,02,33,8.10
2018,02,05,02,34,8.10
2018,02,05,02,35,8.20
2018,02,05,02,36,8.20
2018,02,05,02,37,8.20
2018,02,05,02,38,8.20
2018,02,05,02,39,8.30
2018,02,05,02,40,8.30
2018,02,05,02,41,8.40
2018,02,05,02,42,8.40
2018,02,05,02,43,8.30
2018,02,05,02,44,8.30
2018,02,05,02,45,8.30
2018,02,05,02,46,8.30
2018,02,05,02,47,8.30
2018,02,05,02,48,8.30
2018,02,05,02,49,8.30
2018,02,05,02,50,8.30
2018,02,05,02,51,8.30
2018,02,05,02,52,8.30
2018,02,05,02,53,8.30
2018,02,05,08,32,6.30
2018,02,05,08,33,6.30
2018,02,05,08,34,6.30
2018,02,05,08,35,6.30
2018,02,05,08,36,6.30
2018,02,05,08,37,6.30
2018,02,05,08,38,6.30
2018,02,05,08,39,6.30
2018,02,05,08,40,6.30
2018,02,05,08,41,6.30
2018,02,05,08,42,6.30
2018,02,05,08,43,6.30
2018,02,05,08,44,6.30
2018,02,05,08,45,6.30
2018,02,05,08,46,6.30
2018,02,05,08,47,6.30
2018,02,05,08,48,6.30
2018,02,05,08,49,6.40
2018,02,05,08,50,6.40
2018,02,05,08,51,6.40
2018,02,05,08,52,6.40
2018,02,05,08,53,6.40
2018,02,05,08,54,6.40
2018,02,05,08,55,6.50
2018,02,05,08,56,6.50
2018,02,05,08,57,6.50
2018,02,05,08,58,6.60
2018,02,05,08,59,6.60
2018,02,05,09,00,6.60
2018,02,05,09,01,6.60
2018,02,05,09,02,6.70
2018,02,05,09,03,6.70
2018,02,05,09,04,6.70
2018,02,05,09,05,6.80
2018,02,05,09,06,6.80
2018,02,05,09,07,6.80
2018,02,05,09,08,6.80
2018,02,05,09,09,6.90
2018,02,05,09,10,6.90
2018,02,05,09,11,6.90
2018,02,05,09,12,6.90
2018,02,05,09,13,6.90
2018,02,05,09,14,6.90
2018,02,05,09,15,7.00
2018,02,05,09,16,7.00
2018,02,05,09,17,7.00
2018,02,05,09,18,7.00
2018,02,05,09,19,7.00
2018,02,05,09,20,7.00
2018,02,05,09,21,7.10
2018,02,05,09,22,7.10
2018,02,05,09,23,7.10
2018,02,05,09,24,7.10
2018,02,05,09,25,7.10
2018,02,05,09,26,7.10
2018,02,05,09,27,7.10
2018,02,05,09,28,7.10
2018,02,05,09,29,7.20
2018,02,05,09,30,7.20
2018,02,05,09,31,7.20
2018,02,05,09,32,7.20
2018,02,05,09,33,7.20
2018,02,05,09,34,7.20
2018,02,05,09,35,7.20
2018,02,05,09,36,7.30
2018,02,05,09,37,7.30
2018,02,05,09,38,7.40
2018,02,05,09,39,7.40
2018,02,05,09,40,7.40
2018,02,05,09,41,7.50
2018,02,05,09,42,7.60
2018,02,05,09,43,7.60
2018,02,05,09,44,7.60
2018,02,05,09,45,7.60
2018,02,05,09,46,7.60
2018,02,05,09,47,7.60
2018,02,05,09,48,7.60
2018,02,05,09,49,7.60
2018,02,05,09,50,7.60
2018,02,05,09,51,7.60
2018,02,05,09,52,7.60
2018,02,05,09,53,7.60
2018,02,05,09,54,7.60
2018,02,05,09,55,7.50
2018,02,05,09,56,7.50
2018,02,05,09,57,7.50
2018,02,05,09,58,7.60
2018,02,05,09,59,7.60
2018,02,05,10,00,7.60
2018,02,05,10,01,7.60
2018,02,05,10,02,7.60
2018,02,05,10,03,7.70
2018,02,05,10,04,7.70
2018,02,05,10,05,7.70
2018,02,05,10,06,7.70
2018,02,05,10,07,7.70
2018,02,05,10,08,7.70
2018,02,05,10,09,7.70
2018,02,05,10,10,7.70
2018,02,05,10,11,7.70
2018,02,05,10,12,7.70
2018,02,05,10,13,7.70
2018,02,05,10,14,7.80
2018,02,05,10,15,7.80
2018,02,05,10,16,7.80
2018,02,05,10,17,7.80
2018,02,05,10,18,7.80
2018,02,05,10,19,7.80
2018,02,05,10,20,7.80
2018,02,05,10,21,7.80
2018,02,05,10,22,7.80
2018,02,05,10,23,7.80
2018,02,05,10,24,7.80
2018,02,05,10,25,7.80
2018,02,05,10,26,7.80
2018,02,05,10,27,7.90
2018,02,05,10,28,7.90
2018,02,05,10,29,7.90
2018,02,05,10,30,7.90
2018,02,05,10,31,7.90
2018,02,05,10,32,7.80
2018,02,05,10,33,7.80
2018,02,05,10,34,7.80
2018,02,05,10,35,7.90
2018,02,05,10,36,7.90
2018,02,05,10,37,8.00
2018,02,05,10,38,8.00
2018,02,05,10,39,8.10
2018,02,05,10,40,8.10
2018,02,05,10,41,8.10
2018,02,05,10,42,8.10
2018,02,05,10,43,8.20
2018,02,05,10,44,8.20
2018,02,05,10,45,8.10
2018,02,05,10,46,8.10
2018,02,05,10,47,8.10
2018,02,05,10,48,8.10
2018,02,05,10,49,8.10
2018,02,05,10,50,8.10
2018,02,05,10,51,8.10
2018,02,05,10,52,8.10
2018,02,05,10,53,8.10
2018,02,05,10,54,8.10
2018,02,05,10,55,8.10
2018,02,05,10,56,8.10
2018,02,05,10,57,8.10
2018,02,05,10,58,8.10
2018,02,05,10,59,8.20
2018,02,05,11,00,8.20
2018,02,05,11,01,8.20
2018,02,05,11,02,8.20
2018,02,05,11,03,8.20
2018,02,05,11,04,8.30
2018,02,05,11,05,8.30
2018,02,05,11,06,8.30
2018,02,05,11,07,8.30
2018,02,05,11,08,8.30
2018,02,05,11,09,8.30
2018,02,05,11,10,8.40
2018,02,05,11,11,8.40
2018,02,05,11,12,8.40
2018,02,05,11,13,8.40
2018,02,05,11,14,8.40
2018,02,05,11,15,8.50
2018,02,05,11,16,8.50
2018,02,05,11,17,8.50
2018,02,05,11,18,8.50
2018,02,05,11,19,8.50
2018,02,05,11,20,8.60
2018,02,05,11,21,8.60
2018,02,05,11,22,8.60
2018,02,05,11,23,8.70
2018,02,05,11,24,8.70
2018,02,05,11,25,8.70
2018,02,05,11,26,8.70
2018,02,05,11,27,8.70
2018,02,05,11,28,8.80
2018,02,05,11,29,8.80
2018,02,05,11,30,8.80
2018,02,05,11,31,8.90
2018,02,05,11,32,8.90
2018,02,05,11,33,8.90
2018,02,05,11,34,9.00
2018,02,05,11,35,9.00
2018,02,05,11,36,9.10
2018,02,05,11,37,9.10
2018,02,05,11,38,9.10
2018,02,05,11,39,9.20
2018,02,05,11,40,9.20
2018,02,05,11,41,9.30
2018,02,05,11,42,9.40
2018,02,05,11,43,9.40
2018,02,05,11,44,9.50
2018,02,05,11,45,9.60
2018,02,05,11,46,9.60
2018,02,05,11,47,9.60
2018,02,05,11,48,9.60
2018,02,05,11,49,9.70
2018,02,05,11,50,9.80
2018,02,05,11,51,9.80
2018,02,05,11,52,9.90
2018,02,05,11,53,9.90
2018,02,05,11,54,9.90
2018,02,05,11,55,9.90
2018,02,05,11,56,9.90
2018,02,05,11,57,10.00
2018,02,05,11,58,10.00
2018,02,05,11,59,10.00
2018,02,05,12,00,10.10
2018,02,05,12,01,10.10
2018,02,05,12,02,10.20
2018,02,05,12,03,10.20
2018,02,05,12,04,10.20
2018,02,05,12,05,10.30
2018,02,05,12,06,10.30
2018,02,05,12,07,10.30
2018,02,05,12,08,10.30
2018,02,05,12,09,10.30
2018,02,05,12,10,10.40
2018,02,05,12,11,10.40
2018,02,05,12,12,10.40
2018,02,05,12,13,10.40
2018,02,05,12,14,10.50
2018,02,05,12,15,10.50
2018,02,05,12,16,10.50
2018,02,05,12,17,10.60
2018,02,05,12,18,10.60
2018,02,05,12,19,10.60
2018,02,05,12,20,10.60
2018,02,05,12,21,10.70
2018,02,05,12,22,10.70
2018,02,05,12,23,10.70
2018,02,05,12,24,10.80
2018,02,05,12,25,10.80
2018,02,05,12,26,10.80
2018,02,05,12,27,10.80
2018,02,05,12,28,10.90
2018,02,05,12,29,10.90
2018,02,05,12,30,10.90
2018,02,05,12,31,11.00
2018,02,05,12,32,11.00
2018,02,05,12,33,11.10
2018,02,05,12,34,11.10
2018,02,05,12,35,11.10
2018,02,05,12,36,11.10
2018,02,05,12,37,11.20
2018,02,05,12,38,11.20
2018,02,05,12,39,11.20
2018,02,05,12,40,11.20
2018,02,05,12,41,11.20
2018,02,05,12,42,11.30
2018,02,05,12,43,11.30
2018,02,05,12,44,11.30
2018,02,05,12,45,11.30
2018,02,05,12,46,11.30
2018,02,05,12,47,11.30
2018,02,05,12,48,11.30
2018,02,05,12,49,11.40
2018,02,05,12,50,11.40
2018,02,05,12,51,11.40
2018,02,05,12,52,11.40
2018,02,05,12,53,11.50
2018,02,05,12,54,11.50
2018,02,05,12,55,11.50
2018,02,05,12,56,11.50
2018,02,05,12,57,11.50
2018,02,05,12,58,11.50
2018,02,05,12,59,11.50
2018,02,05,13,00,11.50
2018,02,05,13,01,11.50
2018,02,05,13,02,11.50
2018,02,05,13,03,11.50
2018,02,05,13,04,11.50
2018,02,05,13,05,11.50
2018,02,05,13,06,11.50
2018,02,05,13,07,11.50
2018,02,05,13,08,11.40
2018,02,05,13,09,11.40
2018,02,05,13,10,11.40
2018,02,05,13,11,11.40
2018,02,05,13,12,11.40
2018,02,05,13,13,11.30
2018,02,05,13,14,11.30
2018,02,05,13,15,11.30
2018,02,05,13,16,11.20
2018,02,05,13,17,11.20
2018,02,05,13,18,11.10
2018,02,05,13,19,11.00
2018,02,05,13,20,10.90
2018,02,05,13,21,10.80
2018,02,05,13,22,10.60
2018,02,05,13,23,10.50
2018,02,05,13,24,10.40
2018,02,05,13,25,10.30
2018,02,05,13,26,10.30
2018,02,05,13,27,10.20
2018,02,05,13,28,10.20
2018,02,05,13,29,10.10
2018,02,05,13,30,10.10
2018,02,05,13,31,10.00
2018,02,05,13,32,9.90
2018,02,05,13,33,9.90
2018,02,05,13,34,9.80
2018,02,05,13,35,9.80
2018,02,05,13,36,9.70
2018,02,05,13,37,9.70
2018,02,05,13,38,9.70
2018,02,05,13,39,9.70
2018,02,05,13,40,9.70
2018,02,05,13,41,9.70
2018,02,05,13,42,9.70
2018,02,05,13,43,9.60
2018,02,05,13,44,9.60
2018,02,05,13,45,9.70
2018,02,05,13,46,9.70
2018,02,05,13,47,9.70
2018,02,05,13,48,9.70
2018,02,05,13,49,9.70
2018,02,05,13,50,9.70
2018,02,05,13,51,9.70
2018,02,05,13,52,9.70
2018,02,05,13,53,9.70
2018,02,05,13,54,9.70
2018,02,05,13,55,9.70
2018,02,05,13,56,9.70
2018,02,05,13,57,9.70
2018,02,05,13,58,9.70
2018,02,05,13,59,9.70
2018,02,05,14,00,9.70
2018,02,05,14,01,9.70
2018,02,05,14,02,9.70
2018,02,05,14,03,9.70
2018,02,05,14,04,9.70
2018,02,05,14,05,9.70
2018,02,05,14,06,9.70
2018,02,05,14,07,9.70
2018,02,05,14,08,9.70
2018,02,05,14,09,9.70
2018,02,05,14,10,9.70
2018,02,05,14,11,9.70
2018,02,05,14,12,9.70
2018,02,05,14,13,9.70
2018,02,05,14,14,9.70
2018,02,05,14,15,9.70
2018,02,05,14,16,9.70
2018,02,05,14,17,9.70
2018,02,05,14,18,9.70
2018,02,05,14,19,9.70
2018,02,05,14,20,9.70
2018,02,05,14,21,9.70
2018,02,05,14,22,9.70
2018,02,05,14,23,9.70
2018,02,05,14,24,9.60
2018,02,05,14,25,9.60
2018,02,05,14,26,9.60
2018,02,05,14,27,9.60
2018,02,05,14,28,9.60
2018,02,05,14,29,9.60
2018,02,05,14,30,9.60
2018,02,05,14,31,9.60
2018,02,05,14,32,9.60
2018,02,05,14,33,9.50
2018,02,05,14,34,9.50
2018,02,05,14,35,9.50
2018,02,05,14,36,9.40
2018,02,05,14,37,9.40
2018,02,05,14,38,9.40
2018,02,05,14,39,9.40
2018,02,05,14,40,9.40
2018,02,05,14,41,9.40
2018,02,05,14,42,9.40
2018,02,05,14,43,9.40
2018,02,05,14,44,9.30
2018,02,05,14,45,9.30
2018,02,05,14,46,9.30
2018,02,05,14,47,9.30
2018,02,05,14,48,9.30
2018,02,05,14,49,9.30
2018,02,05,14,50,9.30
2018,02,05,14,51,9.30
2018,02,05,14,52,9.20
2018,02,05,14,53,9.20
2018,02,05,14,54,9.20
2018,02,05,14,55,9.20
2018,02,05,14,56,9.20
2018,02,05,14,57,9.20
2018,02,05,14,58,9.20
2018,02,05,14,59,9.20
2018,02,05,15,00,9.20
2018,02,05,15,01,9.20
2018,02,05,15,02,9.20
2018,02,05,15,03,9.10
2018,02,05,15,04,9.10
2018,02,05,15,05,9.10
2018,02,05,15,06,9.10
2018,02,05,15,07,9.10
2018,02,05,15,08,9.10
2018,02,05,15,09,9.10
2018,02,05,15,10,9.10
2018,02,05,15,11,9.10
2018,02,05,15,12,9.10
2018,02,05,15,13,9.10
2018,02,05,15,14,9.10
2018,02,05,15,15,9.10
2018,02,05,15,16,9.10
2018,02,05,15,17,9.10
2018,02,05,15,18,9.10
2018,02,05,15,19,9.10
2018,02,05,15,20,9.10
2018,02,05,15,21,9.10
2018,02,05,15,22,9.10
2018,02,05,15,23,9.10
2018,02,05,15,24,9.10
2018,02,05,15,25,9.10
2018,02,05,15,26,9.10
2018,02,05,15,27,9.10
2018,02,05,15,28,9.10
2018,02,05,15,29,9.10
2018,02,05,15,30,9.10
2018,02,05,15,31,9.10
2018,02,05,15,32,9.10
2018,02,05,15,33,9.10
2018,02,05,15,34,9.10
2018,02,05,15,35,9.10
2018,02,05,15,36,9.10
2018,02,05,15,37,9.20
2018,02,05,15,38,9.20
2018,02,05,15,39,9.20
2018,02,05,15,40,9.20
2018,02,05,15,41,9.20
2018,02,05,15,42,9.20
2018,02,05,15,43,9.20
2018,02,05,15,44,9.20
2018,02,05,15,45,9.20
2018,02,05,15,46,9.20
2018,02,05,15,47,9.20
2018,02,05,15,48,9.30
2018,02,05,15,49,9.30
2018,02,05,15,50,9.30
2018,02,05,15,51,9.30
2018,02,05,15,52,9.30
2018,02,05,15,53,9.30
2018,02,05,15,54,9.30
2018,02,05,15,55,9.20
2018,02,05,15,56,9.20
2018,02,05,15,57,9.20
2018,02,05,15,58,9.20
2018,02,05,15,59,9.20
2018,02,05,16,00,9.20
2018,02,05,16,01,9.20
2018,02,05,16,02,9.10
2018,02,05,16,03,9.10
2018,02,05,16,04,9.10
2018,02,05,16,05,9.10
2018,02,05,16,06,9.10
2018,02,05,16,07,9.10
2018,02,05,16,08,9.00
2018,02,05,16,09,9.00
2018,02,05,16,10,9.00
2018,02,05,16,11,8.90
2018,02,05,16,12,8.90
2018,02,05,16,13,8.90
2018,02,05,16,14,8.90
2018,02,05,16,15,8.90
2018,02,05,16,16,8.90
2018,02,05,16,17,8.80
2018,02,05,16,18,8.80
2018,02,05,16,19,8.80
2018,02,05,16,20,8.80
2018,02,05,16,21,8.80
2018,02,05,16,22,8.80
2018,02,05,16,23,8.80
2018,02,05,16,24,8.80
2018,02,05,16,25,8.80
2018,02,05,16,26,8.70
2018,02,05,16,27,8.70
2018,02,05,16,28,8.70
2018,02,05,16,29,8.70
2018,02,05,16,30,8.70
2018,02,05,16,31,8.70
2018,02,05,16,32,8.70
2018,02,05,16,33,8.70
2018,02,05,16,34,8.60
2018,02,05,16,35,8.60
2018,02,05,16,36,8.60
2018,02,05,16,37,8.60
2018,02,05,16,38,8.60
2018,02,05,16,39,8.60
2018,02,05,16,40,8.60
2018,02,05,16,41,8.50
2018,02,05,16,42,8.50
2018,02,05,16,43,8.50
2018,02,05,16,44,8.50
2018,02,05,16,45,8.40
2018,02,05,16,46,8.40
2018,02,05,16,47,8.40
2018,02,05,16,48,8.40
2018,02,05,16,49,8.30
2018,02,05,16,50,8.30
2018,02,05,16,51,8.30
2018,02,05,16,52,8.30
2018,02,05,16,53,8.20
2018,02,05,16,54,8.20
2018,02,05,16,55,8.20
2018,02,05,16,56,8.20
2018,02,05,16,57,8.10
2018,02,05,16,58,8.10
2018,02,05,16,59,8.10
2018,02,05,17,00,8.00
2018,02,05,17,01,8.00
2018,02,05,17,02,8.00
2018,02,05,17,03,7.90
2018,02,05,17,04,7.90
2018,02,05,17,05,7.90
2018,02,05,17,06,7.80
2018,02,05,17,07,7.80
2018,02,05,17,08,7.80
2018,02,05,17,09,7.80
2018,02,05,17,10,7.70
2018,02,05,17,11,7.70
2018,02,05,17,12,7.70
2018,02,05,17,13,7.60
2018,02,05,17,14,7.60
2018,02,05,17,15,7.60
2018,02,05,17,16,7.50
2018,02,05,17,17,7.50
2018,02,05,17,18,7.50
2018,02,05,17,19,7.40
2018,02,05,17,20,7.40
2018,02,05,17,21,7.40
2018,02,05,17,22,7.30
2018,02,05,17,23,7.30
2018,02,05,17,24,7.30
2018,02,05,17,25,7.30
2018,02,05,17,26,7.30
2018,02,05,17,27,7.30
2018,02,05,17,28,7.30
2018,02,05,17,29,7.20
2018,02,05,17,30,7.20
2018,02,05,17,31,7.20
2018,02,05,17,32,7.20
2018,02,05,17,33,7.20
2018,02,05,17,34,7.20
2018,02,05,17,35,7.20
2018,02,05,17,36,7.20
2018,02,05,17,37,7.10
2018,02,05,17,38,7.10
2018,02,05,17,39,7.10
2018,02,05,17,40,7.10
2018,02,05,17,41,7.00
2018,02,05,17,42,7.00
2018,02,05,17,43,7.00
2018,02,05,17,44,7.00
2018,02,05,17,45,6.90
2018,02,05,17,46,6.90
2018,02,05,17,47,6.90
2018,02,05,17,48,6.90
2018,02,05,17,49,6.90
2018,02,05,17,50,6.80
2018,02,05,17,51,6.80
2018,02,05,17,52,6.80
2018,02,05,17,53,6.80
2018,02,05,17,54,6.80
2018,02,05,17,55,6.80
2018,02,05,17,56,6.70
2018,02,05,17,57,6.70
2018,02,05,17,58,6.70
2018,02,05,17,59,6.70
2018,02,05,18,00,6.70
2018,02,05,18,01,6.70
2018,02,05,18,02,6.70
2018,02,05,18,03,6.70
2018,02,05,18,04,6.70
2018,02,05,18,05,6.60
2018,02,05,18,06,6.60
2018,02,05,18,07,6.60
2018,02,05,18,08,6.60
2018,02,05,18,09,6.60
2018,02,05,18,10,6.60
2018,02,05,18,11,6.60
2018,02,05,18,12,6.50
2018,02,05,18,13,6.50
2018,02,05,18,14,6.50
2018,02,05,18,15,6.50
2018,02,05,18,16,6.40
2018,02,05,18,17,6.40
2018,02,05,18,18,6.40
2018,02,05,18,19,6.40
2018,02,05,18,20,6.40
2018,02,05,18,21,6.40
2018,02,05,18,22,6.40
2018,02,05,18,23,6.40
2018,02,05,18,24,6.30
2018,02,05,18,25,6.30
2018,02,05,18,26,6.30
2018,02,05,18,27,6.30
2018,02,05,18,28,6.30
2018,02,05,18,29,6.30
2018,02,05,18,30,6.30
2018,02,05,18,31,6.30
2018,02,05,18,32,6.20
2018,02,05,18,33,6.20
2018,02,05,18,34,6.20
2018,02,05,18,35,6.20
2018,02,05,18,36,6.20
2018,02,05,18,37,6.20
2018,02,05,18,38,6.20
2018,02,05,18,39,6.20
2018,02,05,18,40,6.10
2018,02,05,18,41,6.10
2018,02,05,18,42,6.10
2018,02,05,18,43,6.10
2018,02,05,18,44,6.10
2018,02,05,18,45,6.10
2018,02,05,18,46,6.10
2018,02,05,18,47,6.00
2018,02,05,18,48,6.00
2018,02,05,18,49,6.00
2018,02,05,18,50,6.00
2018,02,05,18,51,6.00
2018,02,05,18,52,5.90
2018,02,05,18,53,5.90
2018,02,05,18,54,5.90
2018,02,05,18,55,5.90
2018,02,05,18,56,5.90
2018,02,05,18,57,5.90
2018,02,05,18,58,5.90
2018,02,05,18,59,5.90
2018,02,05,19,00,5.90
2018,02,05,19,01,5.90
2018,02,05,19,02,5.90
2018,02,05,19,03,5.90
2018,02,05,19,04,5.90
2018,02,05,19,05,5.90
2018,02,05,19,06,5.90
2018,02,05,19,07,5.90
2018,02,05,19,08,5.90
2018,02,05,19,09,5.90
2018,02,05,19,10,5.90
2018,02,05,19,11,5.90
2018,02,05,19,12,5.90
2018,02,05,19,13,5.90
2018,02,05,19,14,5.90
2018,02,05,19,15,5.80
2018,02,05,19,16,5.80
2018,02,05,19,17,5.80
2018,02,05,19,18,5.80
2018,02,05,19,19,5.80
2018,02,05,19,20,5.80
2018,02,05,19,21,5.80
2018,02,05,19,22,5.80
2018,02,05,19,23,5.80
2018,02,05,19,24,5.80
2018,02,05,19,25,5.80
2018,02,05,19,26,5.80
2018,02,05,19,27,5.80
2018,02,05,19,28,5.80
2018,02,05,19,29,5.80
2018,02,05,19,30,5.80
2018,02,05,19,31,5.80
2018,02,05,19,32,5.80
2018,02,05,19,33,5.80
2018,02,05,19,34,5.80
2018,02,05,19,35,5.80
2018,02,05,19,36,5.80
2018,02,05,19,37,5.80
2018,02,05,19,38,5.80
2018,02,05,19,39,5.80
2018,02,05,19,40,5.80
2018,02,05,19,41,5.80
2018,02,05,19,42,5.80
2018,02,05,19,43,5.80
2018,02,05,19,44,5.80
2018,02,05,19,45,5.80
2018,02,05,19,46,5.80
2018,02,05,19,47,5.80
2018,02,05,19,48,5.80
2018,02,05,19,49,5.80
2018,02,05,19,50,5.80
2018,02,05,19,51,5.80
2018,02,05,19,52,5.80
2018,02,05,19,53,5.80
2018,02,05,19,54,5.80
2018,02,05,19,55,5.80
2018,02,05,19,56,5.80
2018,02,05,19,57,5.80
2018,02,05,19,58,5.80
2018,02,05,19,59,5.80
2018,02,05,20,00,5.70
2018,02,05,20,01,5.70
2018,02,05,20,02,5.70
2018,02,05,20,03,5.70
2018,02,05,20,04,5.70
2018,02,05,20,05,5.70
2018,02,05,20,06,5.70
2018,02,05,20,07,5.70
2018,02,05,20,08,5.70
2018,02,05,20,09,5.70
2018,02,05,20,10,5.70
2018,02,05,20,11,5.70
2018,02,05,20,12,5.70
2018,02,05,20,13,5.70
2018,02,05,20,14,5.70
2018,02,05,20,15,5.70
2018,02,05,20,16,5.80
2018,02,05,20,17,5.70
2018,02,05,20,18,5.70
2018,02,05,20,19,5.70
2018,02,05,20,20,5.70
2018,02,05,20,21,5.70
2018,02,05,20,22,5.70
2018,02,05,20,23,5.70
2018,02,05,20,24,5.70
2018,02,05,20,25,5.60
2018,02,05,20,26,5.60
2018,02,05,20,27,5.60
2018,02,05,20,28,5.60
2018,02,05,20,29,5.60
2018,02,05,20,30,5.60
2018,02,05,20,31,5.50
2018,02,05,20,32,5.50
2018,02,05,20,33,5.50
2018,02,05,20,34,5.50
2018,02,05,20,35,5.50
2018,02,05,20,36,5.40
2018,02,05,20,37,5.40
2018,02,05,20,38,5.40
2018,02,05,20,39,5.40
2018,02,05,20,40,5.40
2018,02,05,20,41,5.40
2018,02,05,20,42,5.40
2018,02,05,20,43,5.40
2018,02,05,20,44,5.40
2018,02,05,20,45,5.40
2018,02,05,20,46,5.40
2018,02,05,20,47,5.40
2018,02,05,20,48,5.40
2018,02,05,20,49,5.40
2018,02,05,20,50,5.40
2018,02,05,20,51,5.40
2018,02,05,20,52,5.30
2018,02,05,20,53,5.30
2018,02,05,20,54,5.30
2018,02,05,20,55,5.30
2018,02,05,20,56,5.30
2018,02,05,20,57,5.30
2018,02,05,20,58,5.20
2018,02,05,20,59,5.20
2018,02,05,21,00,5.20
2018,02,05,21,01,5.20
2018,02,05,21,02,5.20
2018,02,05,21,03,5.20
2018,02,05,21,04,5.10
2018,02,05,21,05,5.10
2018,02,05,21,06,5.10
2018,02,05,21,07,5.10
2018,02,05,21,08,5.10
2018,02,05,21,09,5.10
2018,02,05,21,10,5.10
2018,02,05,21,11,5.10
2018,02,05,21,12,5.10
2018,02,05,21,13,5.10
2018,02,05,21,14,5.10
2018,02,05,21,15,5.10
2018,02,05,21,16,5.10
2018,02,05,21,17,5.00
2018,02,05,21,18,5.00
2018,02,05,21,19,5.00
2018,02,05,21,20,5.00
2018,02,05,21,21,5.00
2018,02,05,21,22,5.00
2018,02,05,21,23,5.00
2018,02,05,21,24,4.90
2018,02,05,21,25,4.90
2018,02,05,21,26,4.90
2018,02,05,21,27,4.90
2018,02,05,21,28,4.90
2018,02,05,21,29,4.90
2018,02,05,21,30,4.90
2018,02,05,21,31,4.80
2018,02,05,21,32,4.80
2018,02,05,21,33,4.80
2018,02,05,21,34,4.80
2018,02,05,21,35,4.80
2018,02,05,21,36,4.80
2018,02,05,21,37,4.80
2018,02,05,21,38,4.80
2018,02,05,21,39,4.80
2018,02,05,21,40,4.80
2018,02,05,21,41,4.80
2018,02,05,21,42,4.80
2018,02,05,21,43,4.80
2018,02,05,21,44,4.80
2018,02,05,21,45,4.80
2018,02,05,21,46,4.80
2018,02,05,21,47,4.80
2018,02,05,21,48,4.70
2018,02,05,21,49,4.70
2018,02,05,21,50,4.70
2018,02,05,21,51,4.70
2018,02,05,21,52,4.70
2018,02,05,21,53,4.70
2018,02,05,21,54,4.60
2018,02,05,21,55,4.60
2018,02,05,21,56,4.60
2018,02,05,21,57,4.60
2018,02,05,21,58,4.60
2018,02,05,21,59,4.60
2018,02,05,22,00,4.60
2018,02,05,22,01,4.60
2018,02,05,22,02,4.60
2018,02,05,22,03,4.60
2018,02,05,22,04,4.60
2018,02,05,22,05,4.60
2018,02,05,22,06,4.60
2018,02,05,22,07,4.60
2018,02,05,22,08,4.60
2018,02,05,22,09,4.50
2018,02,05,22,10,4.50
2018,02,05,22,11,4.50
2018,02,05,22,12,4.50
2018,02,05,22,13,4.50
2018,02,05,22,14,4.50
2018,02,05,22,15,4.50
2018,02,05,22,16,4.50
2018,02,05,22,17,4.50
2018,02,05,22,18,4.50
2018,02,05,22,19,4.50
2018,02,05,22,20,4.50
2018,02,05,22,21,4.60
2018,02,05,22,22,4.60
2018,02,05,22,23,4.60
2018,02,05,22,24,4.60
2018,02,05,22,25,4.60
2018,02,05,22,26,4.60
2018,02,05,22,27,4.60
2018,02,05,22,28,4.60
2018,02,05,22,29,4.60
2018,02,05,22,30,4.60
2018,02,05,22,31,4.60
2018,02,05,22,32,4.60
2018,02,05,22,33,4.60
2018,02,05,22,34,4.60
2018,02,05,22,35,4.60
2018,02,05,22,36,4.60
2018,02,05,22,37,4.60
2018,02,05,22,38,4.60
2018,02,05,22,39,4.50
2018,02,05,22,40,4.50
2018,02,05,22,41,4.50
2018,02,05,22,42,4.50
2018,02,05,22,43,4.50
2018,02,05,22,44,4.50
2018,02,05,22,45,4.50
2018,02,05,22,46,4.50
2018,02,05,22,47,4.50
2018,02,05,22,48,4.50
2018,02,05,22,49,4.50
2018,02,05,22,50,4.50
2018,02,05,22,51,4.50
2018,02,05,22,52,4.50
2018,02,05,22,53,4.50
2018,02,05,22,54,4.50
2018,02,05,22,55,4.50
2018,02,05,22,56,4.50
2018,02,05,22,57,4.50
2018,02,05,22,58,4.50
2018,02,05,22,59,4.50
2018,02,05,23,00,4.50
2018,02,05,23,01,4.60
2018,02,05,23,02,4.60
2018,02,05,23,03,4.60
2018,02,05,23,04,4.70
2018,02,05,23,05,4.70
2018,02,05,23,06,4.70
2018,02,05,23,07,4.80
2018,02,05,23,08,4.80
2018,02,05,23,09,4.80
2018,02,05,23,10,4.80
2018,02,05,23,11,4.80
2018,02,05,23,12,4.80
2018,02,05,23,13,4.90
2018,02,05,23,14,4.90
2018,02,05,23,15,4.90
2018,02,05,23,16,4.90
2018,02,05,23,17,4.90
2018,02,05,23,18,4.90
2018,02,05,23,19,4.90
2018,02,05,23,20,5.00
2018,02,05,23,21,4.90
2018,02,05,23,22,4.90
2018,02,05,23,23,4.90
2018,02,05,23,24,4.90
2018,02,05,23,25,4.90
2018,02,05,23,26,4.90
2018,02,05,23,27,4.90
2018,02,05,23,28,4.90
2018,02,05,23,29,5.00
2018,02,05,23,30,5.00
2018,02,05,23,31,5.00
2018,02,05,23,32,5.10
2018,02,05,23,33,5.10
2018,02,05,23,34,5.10
2018,02,05,23,35,5.10
2018,02,05,23,36,5.20
2018,02,05,23,37,5.20
2018,02,05,23,38,5.20
2018,02,05,23,39,5.20
2018,02,05,23,40,5.20